Terminal Aerodrome Forecast
Issued by NWS

Home | Current Version | Previous Version | Text Only | Print | Product List | Glossary On
Versions: 1 2 3 4 5 6 7 8 9 10 11 12 13 14 15 16 17 18 19 20 21
000
FTUS44 KLZK 170520
TAFPBF
TAF
KPBF 170520Z 1706/1806 19007KT P6SM SCT040 OVC100
     FM171200 21011KT P6SM VCTS OVC050CB
      TEMPO 1714/1718 4SM TSRA BR OVC025CB
     FM171800 24004KT P6SM VCTS SCT060CB BKN250
     FM180100 VRB06KT P6SM BKN250=

USA.gov is the U.S. government's official web portal to all federal, state and local government web resources and services.